, CA

(GMT )
Point Mugu

Weather History for KNTD - September, 2014

Change the Weather History Date:

Sunday, September 7, 2014

  Actual Average Record
Temperature  
Mean Temperature 72 °F -  
Max Temperature 82 °F 71 °F 90 °F (2017)
Min Temperature 62 °F 57 °F 51 °F (2002)
Cooling Degree Days 7    
Growing Degree Days 22 (Base 50)    
Moisture  
Dew Point 61 °F    
Average Humidity 70    
Maximum Humidity 84    
Minimum Humidity 51    
Precipitation  
Precipitation 0.00 in - - ()
Sea Level Pressure  
Sea Level Pressure 29.80 in    
Wind  
Wind Speed 6 mph (NW)    
Max Wind Speed 13 mph    
Max Gust Speed -    
Visibility 9 miles    
Events Rain    
Averages and records for this station are not official NWS values.
T = Trace of Precipitation, MM = Missing Value Source: NWS Daily Summary

Daily Weather History Graph

Daily Weather History Graph

Search for Another Location

Airport or City:

Trip Planner

Search our weather history database for the weather conditions in past years. The results will help you decide how hot, cold, wet, or windy it might be!

Date:

Astronomy

Sep. 07, 2014 Rise Set
Actual Time 6:34 AM PDT 7:14 PM PDT
Civil Twilight 6:08 AM PDT 7:39 PM PDT
Nautical Twilight 5:39 AM PDT 8:09 PM PDT
Astronomical Twilight 5:08 AM PDT 8:39 PM PDT
Moon 6:15 PM PDT (9/7) 4:55 AM PDT (9/7)
Length of Visible Light 13h 30m
Length of Day
12h 39m
Waxing Gibbous, 97% of the Moon is Illuminated
Sep 7
Waxing Gibbous
Sep 8
Full
Sep 15
Last Quarter
Sep 23
New
Oct 1
First Quarter

Hourly Weather History & Observations

Time (PDT) Temp. Heat Index Dew Point Humidity Pressure Visibility Wind Dir Wind Speed Gust Speed Precip Events Conditions
12:56 AM 64.9 °F - 60.1 °F 84% 29.84 in 6.0 mi NE 4.6 mph - N/A   Haze
1:56 AM 64.9 °F - 60.1 °F 84% 29.82 in 6.0 mi NNE 4.6 mph - N/A   Haze
2:56 AM 63.0 °F - 57.0 °F 81% 29.82 in 9.0 mi NW 3.5 mph - N/A   Clear
3:56 AM 62.1 °F - 57.0 °F 84% 29.81 in 8.0 mi North 3.5 mph - N/A   Clear
4:56 AM 62.1 °F - 57.0 °F 84% 29.80 in 8.0 mi North 3.5 mph - N/A   Clear
5:56 AM 62.1 °F - 55.9 °F 80% 29.81 in 10.0 mi NE 4.6 mph - N/A Rain Light Rain
6:01 AM 62.1 °F - 55.9 °F 80% 29.80 in 10.0 mi NE 5.8 mph - 0.00 in   Clear
6:56 AM 63.0 °F - 57.0 °F 81% 29.82 in 9.0 mi NE 3.5 mph - N/A   Scattered Clouds
7:56 AM 70.0 °F - 61.0 °F 73% 29.83 in 9.0 mi North 3.5 mph - N/A   Scattered Clouds
8:56 AM 75.0 °F - 61.0 °F 62% 29.83 in 10.0 mi NNW 4.6 mph - N/A   Mostly Cloudy
9:56 AM 79.0 °F - 61.0 °F 54% 29.83 in 10.0 mi WNW 5.8 mph - N/A   Mostly Cloudy
10:56 AM 81.0 °F 82.7 °F 64.9 °F 58% 29.84 in 9.0 mi West 10.4 mph - N/A   Scattered Clouds
11:56 AM 80.1 °F 81.9 °F 64.9 °F 60% 29.83 in 10.0 mi West 11.5 mph - N/A   Mostly Cloudy
12:56 PM 81.0 °F 81.9 °F 62.1 °F 52% 29.82 in 10.0 mi West 6.9 mph - N/A   Mostly Cloudy
1:56 PM 81.0 °F 82.5 °F 64.0 °F 56% 29.79 in 10.0 mi West 12.7 mph - N/A   Mostly Cloudy
2:56 PM 82.0 °F 83.0 °F 62.1 °F 51% 29.78 in 10.0 mi WNW 10.4 mph - N/A   Mostly Cloudy
3:56 PM 80.1 °F 81.5 °F 63.0 °F 56% 29.76 in 10.0 mi West 11.5 mph - N/A   Scattered Clouds
4:56 PM 79.0 °F - 63.0 °F 58% 29.77 in 10.0 mi West 12.7 mph - N/A   Scattered Clouds
5:56 PM 75.0 °F - 63.0 °F 66% 29.77 in 10.0 mi WNW 9.2 mph - N/A   Mostly Cloudy
6:56 PM 73.0 °F - 63.0 °F 71% 29.76 in 10.0 mi West 9.2 mph - N/A   Scattered Clouds
7:56 PM 71.1 °F - 62.1 °F 73% 29.77 in 10.0 mi NW 5.8 mph - N/A   Partly Cloudy
8:56 PM 70.0 °F - 62.1 °F 76% 29.79 in 10.0 mi NW 6.9 mph - N/A   Mostly Cloudy
9:56 PM 70.0 °F - 62.1 °F 76% 29.81 in 10.0 mi WNW 5.8 mph - N/A   Mostly Cloudy
10:56 PM 70.0 °F - 62.1 °F 76% 29.81 in 10.0 mi WNW 4.6 mph - N/A   Mostly Cloudy
11:56 PM 69.1 °F - 62.1 °F 78% 29.81 in 8.0 mi WNW 4.6 mph - 0.00 in   Clear